Home > Weather > Ras al-Khaimah > Past weeks

Flag for United Arab Emirates Weather for the Past 2 Weeks in Ras al-Khaimah, Ras al-Khaimah, United Arab Emirates

Now
54 °F

Passing clouds.


Feels Like: 53 °F
Forecast: 55 / 76 °F
Wind: 5 mph from South

Location: Ras Al Khaimah International Airport

Current Time: Feb 13, 2016 at 6:54:12 AM

Latest Report: Feb 13, 2016 at 6:00 AM


Visibility: N/A

Pressure: 30.07 "Hg

Humidity: 82%

Dew point: 48 °F

Location of Ras al-KhaimahLocation

Historic Weather in Ras al-Khaimah — Graph

°F

Ras al-Khaimah Temperature Yesterday

Maximum temperature yesterday: 73 °F (at 12:00 PM)
Minimum temperature yesterday: 57 °F (at 4:00 AM)
Average temperature yesterday: 65 °F

High & Low Weather Summary for the Past Weeks

 TemperatureHumidityPressure
High82 °F (Feb 1, 3:00 PM)94% (Feb 7, 7:00 AM)30.27 "Hg (Feb 7, 7:00 AM)
Low48 °F (Jan 31, 5:00 AM)15% (Feb 6, 3:00 PM)29.92 "Hg (Feb 11, 3:00 PM)
Average63 °F59%30.10 "Hg
* Reported Jan 29 6:00 AM — Feb 13 5:00 AM, Ras al-Khaimah, Weather by CustomWeather, © 2016

Note: Actual official high and low records may vary slightly from our data, if they occured in-between our weather recording intervals... More about our weather records

Advertising

Ras al-Khaimah Weather History for the Previous 24 Hours

 ConditionsComfort  
Time TempWeatherWind HumidityBarometerVisibility
5:00 AM
Sat, Feb 13
59 °FPassing clouds.7 mph72%30.07 "HgN/A
4:00 AM59 °FPassing clouds.9 mph72%30.07 "HgN/A
3:00 AM57 °FPassing clouds.9 mph72%30.07 "HgN/A
2:00 AM55 °FPassing clouds.6 mph77%30.07 "HgN/A
1:00 AM57 °FClear.7 mph67%30.07 "Hg10 mi
12:00 AM57 °FClear.5 mph67%30.09 "Hg10 mi
11:00 PM
Fri, Feb 12
59 °FClear.6 mph63%30.09 "Hg10 mi
10:00 PM61 °FClear.5 mph63%30.09 "Hg10 mi
9:00 PM63 °FClear.7 mph59%30.09 "Hg10 mi
8:00 PM64 °FClear.5 mph52%30.07 "Hg10 mi
7:00 PM66 °FClear.6 mph49%30.07 "Hg10 mi
6:00 PM68 °FSunny.8 mph49%30.04 "Hg10 mi
5:00 PM72 °FPassing clouds.10 mph44%30.01 "HgN/A
4:00 PM72 °FScattered clouds.10 mph44%30.01 "HgN/A
3:00 PM73 °FScattered clouds.12 mph44%30.01 "HgN/A
2:00 PM72 °FScattered clouds.13 mph47%30.01 "HgN/A
1:00 PM72 °FScattered clouds.13 mph44%30.01 "HgN/A
12:00 PM73 °FPartly sunny.14 mph44%30.04 "HgN/A
11:00 AM72 °FPartly sunny.9 mph47%30.07 "HgN/A
10:00 AM68 °FScattered clouds.8 mph64%30.07 "HgN/A
9:00 AM64 °FMild.13 mph68%30.04 "HgN/A
8:00 AM59 °FScattered clouds.13 mph82%30.01 "Hg5 mi
7:00 AM59 °FScattered clouds.10 mph82%30.01 "Hg4 mi
6:00 AM59 °FPassing clouds.12 mph82%29.98 "Hg4 mi
Weather by CustomWeather, © 2016

See weather overviewHow to use our weather pages